Home > Weather > U.S.A. > Lafayette > Past weeks

Flag for U.S.A. Weather past 2 weeks in Lafayette, Louisiana, U.S.A.

61 °F

Mostly cloudy.

Feels Like: 61 °F
Forecast: 49 / 63 °F
Wind: 5 mph from North

Location: Lafayette Regional Airport

Current Time: Dec 1, 2015 at 9:28:35 PM

Latest Report: Dec 1, 2015 at 8:53 PM

Visibility: 10 mi

Pressure: 29.96 "Hg

Humidity: 93%

Dew point: 59 °F

Location of LafayetteLocation

Historic Weather in Lafayette — Graph


Lafayette temperature yesterday

Maximum temperature yesterday: 78 °F (at 11:53 AM)
Minimum temperature yesterday: 67 °F (at 12:53 AM)
Average temperature yesterday: 70 °F

Past Weeks' High & Low Weather Summary

High81 °F (Nov 17, 10:53 AM)100% (Nov 30, 5:00 PM)30.36 "Hg (Nov 30, 5:00 PM)
Low34 °F (Nov 23, 6:53 AM)27% (Nov 23, 1:53 PM)29.66 "Hg (Nov 17, 4:53 PM)
Average63 °F78%30.09 "Hg
* Reported Nov 16 7:53 PM — Dec 1 7:53 PM, Lafayette, Weather by CustomWeather, © 2015

Note: Actual official high and low records may vary slightly from our data, if they occured in-between our weather recording intervals... More about our weather records


Lafayette weather history for previous 24 hours

Time TempWeatherWind HumidityBarometerVisibility
7:53 PM
Tue, Dec 1
60 °FMostly cloudy.6 mph93%29.95 "Hg10 mi
6:53 PM60 °FMostly cloudy.6 mph96%29.96 "Hg10 mi
5:53 PM60 °FMostly cloudy.6 mph96%29.95 "Hg10 mi
4:53 PM61 °FLight rain. Fog.6 mph93%29.93 "Hg2 mi
3:53 PM61 °FLight rain. Fog.8 mph93%29.92 "Hg4 mi
2:53 PM61 °FLow clouds.7 mph93%29.92 "Hg7 mi
1:53 PM60 °FLight rain. Fog.6 mph93%29.92 "Hg4 mi
12:53 PM60 °FFog.8 mph93%29.95 "Hg3 mi
11:53 AM61 °FLow clouds.12 mph90%29.98 "Hg7 mi
11:04 AM61 °FFog.8 mph93%30.00 "Hg4 mi
10:53 AM61 °FLight rain. Fog.10 mph93%30.00 "Hg2 mi
10:02 AM62 °FLight rain. Fog.10 mph96%30.01 "Hg2 mi
9:53 AM63 °FLight rain. Fog.8 mph93%30.01 "Hg3 mi
8:53 AM63 °FLight rain. Fog.10 mph93%30.00 "Hg2 mi
8:00 AM64 °FLight rain. Fog.8 mph97%29.99 "Hg1 mi
6:53 AM66 °FLight rain. Fog.5 mph93%29.98 "Hg2 mi
6:03 AM66 °FFog.6 mph93%29.96 "Hg4 mi
5:53 AM66 °FLight rain. Fog.6 mph96%29.97 "Hg5 mi
5:00 AM67 °FRain. Fog.3 mph93%29.96 "Hg2 mi
3:53 AM67 °FFog.No wind97%29.97 "Hg6 mi
2:53 AM68 °FLow clouds.6 mph93%29.98 "Hg7 mi
1:53 AM68 °FLow clouds.No wind93%29.97 "Hg9 mi
12:53 AM67 °FOvercast.No wind97%29.97 "Hg10 mi
11:53 PM
Mon, Nov 30
67 °FOvercast.No wind97%29.98 "Hg9 mi
10:53 PM67 °FMostly cloudy.No wind97%30.00 "Hg8 mi
9:53 PM68 °FOvercast.No wind96%30.00 "Hg9 mi
Weather by CustomWeather, © 2015

See weather overviewHow to use our weather pages